Arcadia, MI

8:46 PM EDT on May 04, 2015 (GMT -0400)
Benzie | | Change Station
CLOSE
Current Station
Personal Weather Station
Location: Benzonia, MI
Elevation: 811 ft
Nearby Weather Stations

Elev 811 ft 44.54 °N, 86.11 °W | Updated 60 seconds ago

Clear
Clear
57.0 °F
Feels Like 57.0 °F
N
0.0
Wind Variable Wind from NNE
Gusts 0.0 mph

Today
High -- | Low -- °F
--% Chance of Precip.
Yesterday
High -- | Low -- °F
Precip. -- in
6:31 AM 8:52 PM
Full, 99% visible
Pressure 30.19 in
Visibility 10.0 miles
Clouds Clear
Dew Point 39 °F
Humidity 50%
Rainfall 0.07 in
Snow Depth Not available.
UV 0 out of 12
Pollen 8.90 out of 12
Air Quality Not available.
Flu Activity Regional
METAR KFKS 042354Z AUTO 06006KT 10SM CLR 17/M04 A3019 RMK AO2 T01651036 10193 20165

More Conditions Fewer Conditions

Pressure 30.19 in
Visibility 10.0 miles
Clouds Clear
Dew Point 39 °F
Humidity 50%
Rainfall 0.07 in
Snow Depth Not available.
UV 0 out of 12
Pollen 8.90 out of 12
Air Quality Not available.
Flu Activity Regional
METAR KFKS 042354Z AUTO 06006KT 10SM CLR 17/M04 A3019 RMK AO2 T01651036 10193 20165

More Conditions Fewer Conditions

Nepal has a long way to go to dig out and rebuild from a devastating earthquake. We have teamed up with several charities and organizations to make contributing to the relief effort as easy as possible.
How you can help: Portlight Strategies | Red Cross
Nowcast | as of 8:00 PM EDT on May 4, 2015

At 9 PM...partly cloudy. Temperature 55. Northeast winds 7 mph. At 11 PM...partly cloudy. Temperature 46. Light winds. At 1 am...mostly clear. Temperature 42. Light winds. At 3 am...mostly clear. Temperature 40. Light winds.

×

10-Day Weather Forecast

Almanac

Astronomy

May. 04, 2015 Rise Set
Actual Time
Civil Twilight
Nautical Twilight
Astronomical Twilight
Moon
Length of Visible Light
Length of Day
Tomorrow will be .
, % of the Moon is Illuminated

Today's Extremes

State Highs State Lows

Community

WunderPhotos

Upload Photos

1,818,766 photos uploaded!

WunderBlogs® & News

Nearby

Air Quality

  Air Quality AQ Index Pollutant
Not available.

Snow Depth

Station Depth Elevation

Earthquake Activity

City Distance Mag. Time & Date
Minimum magnitude displayed is 2.5.

Coastal Water Temperatures

Place Temperature

Stations

Nearby Weather Stations

Station Location Temp. Windchill Dew Point Humidity Wind Precip. Elev Updated Type